Date String (YYYY-MM-DD hh:mm:ss) UTC,Instrument flags,Ambient pressure (hPa),Sample flow (lpm),Bypass flow (lpm),Sample temperature (°C),Ambient temperature (°C),ASC tube jacket temperature (°C),LED temperature (°C),Box temperature (°C),Sample RH (%),Span deviation,Mass concentration (μg/m³),Mass concentration (μg/m³),Mass concentration (μg/m³)
DateTimeUTC,F1_M11,P_M11,Q1_M11,Q2_M11,T1_M11,T2_M11,T3_M11,T4_M11,T5_M11,U1_M11,ZSPAN_M11,X2_M11,X0_M11,X1_M11
2023-04-23 23:00:00,,0826.8,4.99,0.00,24.5,23.2,00.0,32.8,26.2,12.7,0002.6,0008.08,0012.09,0007.39
2023-04-23 23:01:00,,0826.8,4.99,0.00,24.5,23.3,00.0,32.8,26.2,12.6,0002.9,0008.04,0012.04,0007.36
2023-04-23 23:02:00,,0826.8,4.99,0.00,24.5,23.3,00.0,32.8,26.2,12.7,0003.5,0008.00,0012.03,0007.33
2023-04-23 23:03:00,,0826.7,5.00,0.00,24.5,23.3,00.0,32.8,26.2,12.7,0003.3,0007.98,0011.99,0007.32
2023-04-23 23:04:00,,0826.8,5.00,0.00,24.6,23.4,00.0,32.8,26.3,12.8,0002.8,0007.92,0011.71,0007.29
2023-04-23 23:05:00,,0826.8,5.01,0.00,24.6,23.4,00.0,32.9,26.3,12.8,0002.8,0007.88,0011.15,0007.27
2023-04-23 23:06:00,,0826.8,5.00,0.00,24.6,23.5,00.0,32.9,26.3,12.9,0003.2,0007.86,0011.11,0007.26
2023-04-23 23:07:00,,0826.8,5.00,0.00,24.6,23.5,00.0,32.9,26.3,12.6,0003.5,0007.83,0011.07,0007.23
2023-04-23 23:08:00,,0826.8,5.00,0.00,24.6,23.5,00.0,32.9,26.3,12.5,0003.5,0007.80,0011.06,0007.22
2023-04-23 23:09:00,,0826.8,5.00,0.00,24.7,23.5,00.0,32.9,26.4,12.7,0004.0,0007.75,0011.55,0007.22
2023-04-23 23:10:00,,0826.8,5.00,0.00,24.7,23.5,00.0,32.9,26.4,12.8,0003.7,0007.71,0011.61,0007.20
2023-04-23 23:11:00,,0826.8,5.00,0.00,24.7,23.6,00.0,33.0,26.4,12.6,0003.9,0007.68,0011.43,0007.20
2023-04-23 23:12:00,,0826.8,5.00,0.00,24.7,23.6,00.0,33.0,26.3,12.9,0004.0,0007.67,0011.48,0007.17
2023-04-23 23:13:00,,0826.8,5.00,0.00,24.7,23.6,00.0,33.0,26.4,12.8,0003.6,0007.65,0011.59,0007.14
2023-04-23 23:14:00,,0826.8,5.00,0.00,24.7,23.6,00.0,33.0,26.4,12.6,0003.3,0007.61,0011.66,0007.10
2023-04-23 23:15:00,,0826.8,5.00,0.00,24.8,23.6,00.0,33.0,26.4,12.7,0003.3,0007.57,0011.81,0007.07
2023-04-23 23:16:00,,0826.8,5.00,0.00,24.8,23.6,00.0,33.0,26.4,12.8,0003.4,0007.59,0012.05,0007.06
2023-04-23 23:17:00,,0826.8,5.00,0.00,24.8,23.6,00.0,33.1,26.5,12.6,0003.2,0007.64,0012.17,0007.10
2023-04-23 23:18:00,,0826.8,4.99,0.00,24.8,23.6,00.0,33.1,26.4,12.6,0003.2,0007.67,0012.24,0007.15
2023-04-23 23:19:00,,0826.8,5.00,0.00,24.8,23.6,00.0,33.1,26.4,12.7,0003.3,0007.75,0012.32,0007.20
2023-04-23 23:20:00,,0826.8,5.00,0.00,24.8,23.5,00.0,33.1,26.4,12.8,0003.5,0007.80,0011.80,0007.24
2023-04-23 23:21:00,,0826.8,5.00,0.00,24.8,23.5,00.0,33.1,26.4,12.7,0003.8,0007.86,0011.69,0007.30
2023-04-23 23:22:00,,0826.7,4.99,0.00,24.8,23.4,00.0,33.1,26.4,12.5,0003.7,0007.90,0011.66,0007.35
2023-04-23 23:23:00,,0826.7,5.00,0.00,24.7,23.4,00.0,33.1,26.4,12.5,0003.5,0008.00,0011.98,0007.45
2023-04-23 23:24:00,,0826.8,5.00,0.00,24.7,23.3,00.0,33.1,26.3,12.7,0003.8,0008.12,0012.47,0007.54
2023-04-23 23:25:00,,0826.8,5.00,0.00,24.7,23.3,00.0,33.1,26.4,12.5,0004.2,0008.19,0012.47,0007.61
2023-04-23 23:26:00,,0826.8,5.01,0.00,24.7,23.3,00.0,33.1,26.3,12.4,0004.0,0008.32,0012.47,0007.72
2023-04-23 23:27:00,,0826.8,5.00,0.00,24.7,23.3,00.0,33.1,26.4,12.4,0004.3,0008.39,0012.34,0007.81
2023-04-23 23:28:00,,0826.8,5.00,0.00,24.7,23.3,00.0,33.1,26.3,12.4,0003.9,0008.42,0012.35,0007.84
2023-04-23 23:29:00,,0826.8,5.00,0.00,24.7,23.4,00.0,33.1,26.4,12.4,0004.0,0008.47,0012.34,0007.89
2023-04-23 23:30:00,,0826.8,4.99,0.00,24.7,23.4,00.0,33.1,26.4,12.5,0004.2,0008.48,0012.32,0007.93
2023-04-23 23:31:00,,0826.8,5.00,0.00,24.7,23.4,00.0,33.1,26.4,12.5,0004.1,0008.50,0012.29,0007.96
2023-04-23 23:32:00,,0826.8,5.00,0.00,24.7,23.4,00.0,33.1,26.4,12.4,0003.4,0008.55,0013.09,0007.98
2023-04-23 23:33:00,,0826.8,5.00,0.00,24.8,23.4,00.0,33.1,26.4,12.4,0003.9,0008.62,0013.23,0008.02
2023-04-23 23:34:00,,0826.8,5.00,0.00,24.8,23.5,00.0,33.2,26.5,12.3,0003.5,0008.60,0013.03,0008.03
2023-04-23 23:35:00,,0826.8,5.00,0.00,24.8,23.5,00.0,33.2,26.5,12.3,0002.8,0008.58,0012.42,0008.05
2023-04-23 23:36:00,,0826.8,5.00,0.00,24.8,23.6,00.0,33.2,26.5,12.4,0001.3,0008.63,0012.43,0008.08
2023-04-23 23:37:00,,0826.8,5.00,0.00,24.8,23.6,00.0,33.2,26.5,12.5,0001.5,0008.62,0012.43,0008.07
2023-04-23 23:38:00,,0826.8,5.00,0.00,24.9,23.7,00.0,33.2,26.5,12.4,0000.8,0008.63,0012.47,0008.07
2023-04-23 23:39:00,,0826.8,5.01,0.00,24.9,23.7,00.0,33.2,26.5,12.4,0001.8,0008.62,0012.44,0008.06
2023-04-23 23:40:00,,0826.8,5.00,0.00,24.9,23.7,00.0,33.2,26.6,12.2,0000.9,0008.63,0012.47,0008.05
2023-04-23 23:41:00,,0826.8,5.01,0.00,24.9,23.7,00.0,33.2,26.6,12.2,-000.2,0008.67,0012.61,0008.06
2023-04-23 23:42:00,,0826.7,5.00,0.00,24.9,23.7,00.0,33.2,26.6,12.2,-000.6,0008.70,0012.77,0008.09
2023-04-23 23:43:00,,0826.8,5.00,0.00,24.9,23.8,00.0,33.3,26.6,12.3,-000.3,0008.70,0012.09,0008.10
2023-04-23 23:44:00,,0826.7,5.00,0.00,25.0,23.8,00.0,33.3,26.6,12.2,-000.4,0008.72,0012.11,0008.10
2023-04-23 23:45:00,,0826.8,4.99,0.00,25.0,23.7,00.0,33.3,26.6,12.4,-001.1,0008.72,0012.13,0008.09
2023-04-23 23:46:00,,0826.8,5.01,0.00,25.0,23.8,00.0,33.3,26.6,12.4,-001.4,0008.68,0012.07,0008.08
2023-04-23 23:47:00,,0826.8,5.00,0.00,25.0,23.8,00.0,33.3,26.7,12.4,-001.3,0008.68,0012.08,0008.09
2023-04-23 23:48:00,,0826.8,5.01,0.00,25.0,23.8,00.0,33.3,26.7,12.2,-001.4,0008.69,0012.16,0008.10
2023-04-23 23:49:00,,0826.8,5.00,0.00,25.0,23.8,00.0,33.3,26.7,12.2,-001.3,0008.72,0012.58,0008.11
2023-04-23 23:50:00,,0826.8,4.99,0.00,25.1,23.8,00.0,33.3,26.7,12.2,-000.5,0008.71,0013.08,0008.11
2023-04-23 23:51:00,,0826.8,4.99,0.00,25.1,23.9,00.0,33.4,26.7,12.2,-000.8,0008.70,0013.26,0008.10
2023-04-23 23:52:00,,0826.8,4.99,0.00,25.1,23.9,00.0,33.4,26.8,12.2,-000.5,0008.67,0013.14,0008.08
2023-04-23 23:53:00,,0826.9,5.00,0.00,25.1,24.0,00.0,33.4,26.8,12.2,0001.0,0008.63,0013.12,0008.06
2023-04-23 23:54:00,,0826.9,5.01,0.00,25.2,24.0,00.0,33.4,26.8,12.3,-000.2,0008.60,0013.09,0008.04
2023-04-23 23:55:00,,0826.9,5.00,0.00,25.2,24.1,00.0,33.4,26.8,12.2,0000.7,0008.56,0013.01,0008.03
2023-04-23 23:56:00,,0826.9,5.00,0.00,25.2,24.1,00.0,33.4,26.9,12.3,0001.2,0008.53,0012.96,0008.01
2023-04-23 23:57:00,,0826.9,5.00,0.00,25.2,24.1,00.0,33.5,26.8,12.1,0003.1,0008.53,0013.00,0008.01
2023-04-23 23:58:00,,0826.9,4.99,0.00,25.2,24.1,00.0,33.5,26.9,12.2,0003.4,0008.58,0013.15,0008.03
2023-04-23 23:59:00,,0826.9,5.00,0.00,25.2,24.1,00.0,33.5,26.9,12.0,0003.5,0008.61,0013.14,0008.04
